Regional Weather Roundup
Issued by NWS

Home | Current Version | Previous Version | Graphics & Text | Print | Product List | Glossary On
Versions: 1 2 3 4 5 6 7 8 9 10 11 12 13 14 15 16 17 18 19 20 21 22 23 24 25 26 27 28 29 30 31 32 33 34 35 36 37 38 39 40 41 42 43 44 45 46 47 48 49 50
000
ASUS43 KBIS 042002
RWRND

NORTH DAKOTA REGIONAL WEATHER ROUNDUP
NATIONAL WEATHER SERVICE BISMARCK ND
300 PM CDT FRI SEP 04 2015

NOTE: "FAIR" INDICATES FEW OR NO CLOUDS BELOW 12,000 FEET WITH NO
SIGNIFICANT WEATHER AND/OR OBSTRUCTIONS TO VISIBILITY.


NDZ001>003-009>011-017-042100-
NORTHWEST NORTH DAKOTA

CITY           SKY/WX    TMP DP  RH WIND       PRES   REMARKS
WILLISTON      CLOUDY    71  55  56 N17       29.88F
MINOT          CLOUDY    74  64  71 NW13      29.80R
$$

NDZ018>021-031>035-040>046-042100-
SOUTHWEST NORTH DAKOTA

CITY           SKY/WX    TMP DP  RH WIND       PRES   REMARKS
BISMARCK       CLOUDY    82  70  66 VRB3      29.76F
DICKINSON      CLOUDY    70  63  78 N7        29.83S
GARRISON         N/A     77  65  66 SW7       29.80F
HETTINGER ARPT SUNNY     87  56  34 S7        29.82S
$$

NDZ004>008-012>016-024-026-027-054-042100-
NORTHEAST NORTH DAKOTA

CITY           SKY/WX    TMP DP  RH WIND       PRES   REMARKS
GRAND FORKS    CLOUDY    82  66  58 SW15G25   29.78R
GRND FRKS AFB  CLOUDY    81  71  71 W10       29.78R
DEVILS LAKE    CLOUDY    70  63  78 SE7       29.77R
$$

NDZ022-023-025-028>030-036>039-047>053-042100-
SOUTHEAST NORTH DAKOTA

CITY           SKY/WX    TMP DP  RH WIND       PRES   REMARKS
FARGO          LGT RAIN  78  71  79 S9        29.80S
JAMESTOWN      CLOUDY    77  66  68 S6        29.79S
$$



USA.gov is the U.S. government's official web portal to all federal, state and local government web resources and services.